{"data":{"norad_id":69047,"epoch":"2026-05-25T03:07:41.809728Z","epoch_age_seconds":57589,"freshness":"FRESH","line1":"1 69047U 26101Y   26145.13034502  .00116244  00000+0  76849-3 0  9996","line2":"2 69047  97.2846 359.9240 0001656  69.3336 290.8107 15.75224702  3010","mean_motion":15.75224702,"eccentricity":0.0001656,"inclination_deg":97.2846,"raan_deg":359.924,"arg_perigee_deg":69.3336,"mean_anomaly_deg":290.8107,"bstar":0.00076849,"rev_number":301,"period_min":91.415529363632,"perigee_km":342.87865724095,"apogee_km":345.10502631335,"semimajor_km":6722.1288417772,"source":"CELESTRAK","updated_at":"2026-05-25T13:38:22.101176Z"}}